User: anonymous   Login
Location: Mt. Chestnut Observatory
(40.9038°N, 79.9956°W)
Time: 21:40:01
(UTC-04:00)
Language:

Cosmos 2034 Rocket - Orbit

View from above orbital plane
View from above orbital plane
View from above satellite
View from above satellite

Ground track
Ground track

The orbit data is extracted from the following two-line orbital elements,

1 20150U 89059B   15183.35983407  .00000026  00000-0  11309-4 0  9992
2 20150 082.9405 265.1172 0030267 120.1928 308.4792 13.75600076301971
Epoch (UTC): 02 July 2015 08:38:09
Eccentricity: 0.0030267
inclination: 82.9405°
perigee height: 957 km
apogee height: 1002 km
right ascension of ascending node: 265.1172°
argument of perigee: 120.1928°
revolutions per day: 13.75600076
mean anomaly at epoch: 308.4792°
orbit number at epoch: 30197

The dashed part of the orbit path shows where the satellite is in the earth's shadow,  

DLR